Location: Shepherdstown, WV
(39.4326°N, 77.8042°W)
Time: 14:06:29
(UTC-04:00)

Tiros 1 despin weight - Pass Details

Date: 31 July 2021
Orbit: 593 x 641 km, 48.2° (Epoch: 22 September)

Event Time Altitude Azimuth Distance (km) Brightness Sun altitude
Rises 21:35:05 0° 293° (WNW) 2,932 ? -12.6°
Reaches altitude 10° 21:37:44 10° 280° (W) 2,014 ? -13.0°
Maximum altitude 21:41:32 25° 225° (SW) 1,254 ? -13.6°
Enters shadow 21:44:48 12° 173° (S) 1,827 ? -14.1°
